CAPE
37 27 37 70 52 25 4 6 0 0 0 0 0 0 0 0 0 0 0 0 0 0 0 0 0 0 0 0 0 0 0 0 0 0 0 0 0 0 0 0 0 0 0 0 0 0 0
39 50 55 56 61 61 25 9 3 0 0 0 0 0 0 0 0 0 0 0 0 0 0 0 0 0 0 0 0 0 0 0 0 0 0 0 0 0 0 0 0 0 0 0 0 0 0
30 45 47 55 70 49 56 12 1 1 0 0 0 0 0 0 0 0 0 0 0 0 0 0 0 0 0 0 0 0 0 0 0 0 0 0 0 0 0 0 0 0 0 0 0 0 0
56 40 42 53 65 47 24 27 6 1 1 0 0 0 0 0 0 0 0 0 0 0 0 0 0 0 0 0 0 0 0 0 0 0 0 0 0 0 0 0 0 0 0 0 0 0 0
89 74 39 32 45 72 72 52 27 13 1 0 0 0 0 0 0 0 0 0 0 0 0 0 0 0 0 0 0 0 0 0 0 0 0 0 0 0 0 0 0 0 0 0 0 0 0
78 104 74 62 56 74 53 56 44 23 1 3 0 0 0 0 0 0 0 0 0 0 8 0 0 0 0 0 0 0 0 0 0 0 0 0 0 0 0 0 0 0 0 0 0 0 0
128 89 113 87 81 82 62 40 49 37 27 0 1 0 0 0 0 0 0 34 33 25 29 0 0 0 0 0 0 0 0 0 0 0 0 0 0 0 0 0 0 0 0 0 0 0 0
103 102 99 113 94 115 102 70 17 51 31 4 0 1 0 0 0 0 21 4 0 0 0 0 0 0 0 0 0 0 0 0 0 0 0 0 0 0 0 0 0 0 0 0 0 0 0
102 88 97 102 116 97 118 96 71 13 56 24 3 0 0 0 0 2 19 3 0 0 0 0 0 0 0 0 0 0 0 0 0 0 0 0 0 0 0 0 0 0 0 0 0 0 0
104 80 80 105 120 108 88 104 104 64 33 23 5 0 0 0 0 7 24 21 0 0 0 0 0 0 0 0 0 0 0 0 0 0 0 0 0 0 0 0 0 0 0 0 0 0 0
138 82 74 88 96 100 80 88 94 87 57 54 7 4 0 0 0 6 3 0 3 1 0 0 0 0 0 0 0 0 0 0 0 0 0 0 0 0 0 0 0 0 0 0 0 0 0
103 99 82 78 90 90 90 88 108 84 60 45 42 8 0 0 1 0 0 0 0 2 1 1 2 0 0 0 0 0 0 0 0 0 0 0 0 0 0 0 0 0 0 0 0 0 0
72 83 83 62 86 100 105 109 95 72 58 27 60 13 0 13 2 1 0 0 1 10 6 10 11 14 1 0 0 0 0 0 0 0 0 0 0 0 0 0 0 0 0 2 0 3 0
62 48 75 79 76 109 110 110 88 88 53 54 62 27 2 29 2 2 0 0 6 0 1 10 12 3 6 1 0 5 0 0 0 0 0 0 1 0 0 0 0 0 0 1 4 0 0
73 78 71 73 89 113 136 103 109 113 85 58 95 74 59 48 4 0 1 0 1 0 0 15 12 16 12 8 2 10 5 0 0 0 0 0 0 0 0 0 0 0 16 0 1 0 0
124 108 87 72 86 140 148 142 128 131 144 74 69 29 86 54 14 6 0 0 0 0 0 2 2 6 7 16 17 11 13 3 1 0 0 0 1 0 0 0 0 2 0 1 12 21 12
191 90 99 72 83 143 179 173 143 163 139 84 27 13 52 112 54 6 0 1 12 0 0 0 0 1 0 10 14 13 10 0 0 0 0 1 0 0 0 1 0 0 5 3 12 11 12
95 76 81 79 117 145 187 210 182 167 164 158 4 10 82 135 93 1 0 7 1 0 4 2 0 0 0 1 14 15 0 0 0 0 0 0 7 2 0 0 0 21 7 1 5 2 8
103 85 97 104 137 176 209 241 229 216 200 228 19 36 63 107 2 0 10 3 0 0 10 0 0 0 0 0 21 13 2 1 0 3 6 3 9 8 0 0 0 0 6 7 13 23 9
95 80 123 144 167 203 240 258 276 251 237 211 46 0 11 0 46 2 4 12 18 10 9 0 0 0 0 5 6 14 12 0 0 26 1 12 33 1 0 0 0 0 0 2 35 80 8
10 91 87 140 160 187 256 250 227 343 288 224 45 1 1 0 2 72 7 7 12 8 14 20 13 3 0 3 9 9 36 0 0 6 16 28 24 26 25 0 0 0 0 0 2 0 115
21 5 84 128 127 178 260 267 207 333 349 193 0 6 3 9 10 11 26 7 15 12 2 14 9 34 16 11 23 0 1 0 0 0 74 70 60 0 25 36 0 0 0 2 0 0 34
2 3 77 62 92 192 284 310 238 310 291 53 7 8 21 14 58 10 22 3 9 79 27 0 3 20 70 0 38 32 0 0 2 0 46 45 76 0 8 0 0 0 0 0 0 0 1
9 45 35 60 89 172 273 309 257 324 242 42 29 52 4 8 84 28 30 10 30 54 21 50 87 82 17 0 0 0 0 0 0 0 0 1 11 1 7 4 2 0 0 0 0 0 0
23 16 34 53 87 202 258 317 255 269 246 63 53 133 11 28 15 41 28 41 65 9 0 28 31 32 0 0 0 0 2 1 0 0 0 0 10 3 6 12 0 0 0 0 0 0 0
15 6 13 45 72 170 201 283 245 214 130 41 57 125 80 21 13 14 125 119 42 24 3 1 0 0 0 0 0 3 1 0 7 6 1 4 0 77 17 43 26 0 0 0 0 0 0
12 11 14 3 58 143 181 187 230 172 77 44 52 44 6 3 0 1 104 15 0 0 1 4 1 0 0 1 0 37 128 6 12 1 9 11 8 6 32 15 10 0 0 0 0 0 0
56 35 13 8 20 88 148 174 183 113 48 53 15 2 9 3 3 4 1 52 2 0 6 2 1 1 0 0 52 8 22 5 15 0 3 3 6 4 4 22 16 0 0 0 0 0 0
69 53 68 26 6 8 68 95 115 88 50 95 6 13 14 1 2 8 5 1 2 14 0 8 0 1 2 2 4 3 3 5 0 10 0 18 4 39 15 11 0 0 0 0 0 0 0
CIN
0 0 0 0 0 0 0 0 0 0 0 0 0 0 0 0 0 0 0 0 0 0 0 0 0 0 0 0 0 0 0 0 0 0 0 0 0 0 0 0 0 0 0 0 0 0 0
0 0 0 0 0 0 0 0 0 0 0 0 0 0 0 0 0 0 0 0 0 0 0 0 0 0 0 0 0 0 0 0 0 0 0 0 0 0 0 0 0 0 0 0 0 0 0
0 -1 0 0 0 0 0 0 0 0 0 0 0 0 0 0 0 0 0 0 0 0 0 0 0 0 0 0 0 0 0 0 0 0 0 0 0 0 0 0 0 0 0 0 0 0 0
-5 -12 -3 0 0 -1 0 0 0 0 0 0 0 0 0 0 0 0 0 0 0 0 0 0 0 0 0 0 0 0 0 0 0 0 0 0 0 0 0 0 0 0 0 0 0 0 0
0 -1 -4 -1 -1 -2 -2 0 0 0 0 0 0 0 0 0 0 0 0 0 0 0 0 0 0 0 0 0 0 0 0 0 0 0 0 0 0 0 0 0 0 0 0 0 0 0 0
0 0 -2 -1 0 0 -6 -1 0 0 0 0 0 0 0 0 0 0 0 0 -1 0 0 0 0 0 0 0 0 0 0 0 0 0 0 0 0 0 0 0 0 0 0 0 0 0 0
0 0 0 0 0 0 -1 -9 -1 0 -1 0 0 0 0 0 0 0 0 0 0 0 0 0 0 0 0 0 0 0 0 0 0 0 0 0 0 0 0 0 0 0 0 0 0 0 0
0 0 0 0 0 0 0 -5 -22 -2 0 -3 0 0 0 0 0 0 0 0 0 0 0 0 0 0 0 0 0 0 0 0 0 0 0 0 0 0 0 0 0 0 0 0 0 0 0
-1 0 0 0 0 0 0 0 -15 -25 -1 0 -1 0 0 0 0 -29 -1 0 0 0 0 0 0 0 0 0 0 0 0 0 0 0 0 0 0 0 0 0 0 0 0 0 0 0 0
0 0 0 0 0 0 0 0 0 -23 -11 -3 0 0 0 0 0 -9 -1 -2 -3 0 0 0 0 0 0 0 0 0 0 0 0 0 0 0 0 0 0 0 0 0 0 0 0 0 0
-4 0 0 0 0 0 0 -1 -2 -4 -19 -2 -7 -3 0 0 0 0 -7 0 -115 -46 0 0 0 0 0 0 0 0 0 0 0 0 0 0 0 0 0 0 0 0 0 0 0 0 0
0 0 0 0 0 0 -1 -1 -2 -3 -12 -11 -3 -8 0 0 0 -7 0 0 0 0 0 0 0 0 0 0 0 0 0 0 0 0 0 0 0 0 0 0 0 0 0 0 0 0 0
0 0 0 0 0 0 -1 -1 -1 -5 -5 -14 -9 -3 0 -2 -1 -1 0 0 0 0 0 0 0 0 0 0 0 0 0 0 0 0 0 0 0 0 0 0 0 0 0 0 0 0 0
0 0 0 0 0 0 0 0 -2 -3 -12 -13 -4 -4 -13 -3 0 -2 0 0 0 0 0 0 0 0 0 0 0 0 0 0 0 0 0 0 0 0 0 0 0 0 0 0 0 0 0
0 0 0 0 0 0 0 -1 -1 -2 -3 -13 -5 0 -7 -3 0 -3 -2 0 0 0 0 0 0 0 0 0 0 0 0 0 0 0 0 0 0 0 0 0 0 0 0 0 0 0 0
-2 -13 0 0 0 0 0 0 -1 -1 -2 -9 -10 -2 -1 -4 0 -1 0 0 0 0 0 -2 0 0 0 0 0 0 0 0 0 0 0 0 0 0 0 0 0 0 0 0 0 0 0
0 -1 0 -1 0 0 0 0 -2 -2 -3 -9 -5 0 -5 0 -9 0 0 0 0 0 0 0 0 0 0 0 0 0 0 0 0 0 0 -1 0 0 0 0 0 0 0 0 0 0 0
-8 -1 0 -2 0 0 0 0 0 -3 -4 -2 -7 0 -2 0 0 -1 0 0 0 0 0 -1 0 0 0 0 0 0 0 0 0 0 0 0 0 -1 0 0 0 0 0 0 -7 0 -40
-14 -20 -10 -3 0 0 0 0 0 -2 -5 0 0 0 -10 -10 -4 0 0 0 0 -7 -5 -1 0 0 0 0 0 -6 -8 -36 0 -68 -55 -14 0 0 0 0 0 0 0 0 -12 -3 0
-1 -2 -1 0 0 0 0 0 0 -1 -4 0 -1 0 -15 -2 -3 -2 0 0 0 0 0 0 0 0 0 -8 -2 -6 -10 0 0 -62 -30 -9 0 -25 0 0 0 0 0 0 -6 -3 0
0 0 -3 -4 0 0 0 0 0 0 -2 -1 0 0 0 0 0 -4 0 0 0 -1 -1 -1 -1 -1 -1 -1 -4 0 0 0 0 -11 -30 -24 -16 -19 -24 0 0 0 0 0 0 0 0
0 0 -5 0 -3 -3 0 0 0 0 -1 0 0 0 0 0 -5 -4 -1 0 -1 0 0 0 0 0 0 0 0 -1 -1 0 0 0 -16 -14 -8 0 -28 -14 0 0 0 0 0 0 0
0 0 0 0 -6 -1 0 0 -1 0 -1 -3 -1 0 0 -2 -2 0 -2 0 -8 -3 -4 0 0 -11 -4 0 -5 -3 0 0 -5 0 -40 -39 -10 0 -30 -1 0 0 0 0 0 0 -4
0 0 0 0 0 -1 -1 0 0 -1 -1 -1 0 0 0 0 -1 0 0 -3 -28 -8 -23 0 -2 -1 0 0 0 0 0 0 0 0 0 -85 -66 -3 0 0 0 0 0 0 0 0 0
0 0 0 0 -35 0 0 0 -2 -1 -1 -1 -1 0 0 0 -30 -36 -18 0 0 -27 -10 -19 -29 -10 0 0 -27 0 0 0 0 0 0 0 -6 0 0 0 0 0 0 0 0 0 0
0 0 0 0 -25 0 -4 -2 -4 -2 -1 -1 0 0 -1 -2 0 -43 0 0 -4 -4 0 0 0 0 -4 0 0 0 0 0 -1 0 0 0 0 -1 0 -3 0 0 0 0 0 0 0
0 0 0 -9 0 -3 -10 -10 -5 -4 -1 -1 -1 0 -1 0 0 0 -3 -7 0 0 0 0 0 0 0 0 0 -2 0 0 0 0 0 0 0 0 0 -2 -2 0 0 0 0 0 0
0 0 0 0 -2 -1 -7 -7 -6 -7 -2 0 0 0 -1 0 0 0 -4 -2 -1 0 0 0 0 0 0 0 0 0 0 0 0 0 0 0 0 0 0 0 0 0 0 0 0 0 0
0 0 0 0 0 -3 -3 -5 -14 -14 -13 0 0 -3 -4 0 0 0 0 0 -1 -1 0 0 0 0 0 0 0 0 0 0 0 0 0 0 0 0 0 0 0 0 0 0 0 0 0
Wind_Speed
20 18 15 13 16 16 15 17 25 25 24 23 21 20 19 18 17 14 13 11 9 7 5 3 7 11 5 5 6 5 3 4 3 2 3 1 1 1 4 2 3 6 2 4 6 8 12
21 19 16 14 12 15 16 16 18 25 25 24 23 21 20 18 17 15 13 12 10 9 6 3 5 10 3 10 5 4 2 1 3 1 3 2 3 2 2 1 5 3 6 9 8 9 7
22 21 18 16 13 12 15 13 16 18 25 25 24 22 21 20 17 16 14 12 10 9 7 3 4 3 6 11 2 4 0 2 2 2 3 4 2 3 2 3 1 2 8 8 8 4 3
25 22 21 18 14 12 13 13 12 17 21 25 25 24 22 20 19 17 14 12 11 9 7 3 1 1 8 2 2 8 6 6 4 3 4 3 1 2 4 1 4 5 4 7 7 3 5
26 25 23 22 19 15 13 17 16 15 15 23 25 24 23 21 19 17 15 13 11 9 4 3 4 4 8 4 6 6 10 8 7 5 5 5 5 2 5 7 7 6 9 6 5 2 4
28 26 25 23 21 17 14 12 15 15 17 14 24 25 24 22 21 18 17 16 12 11 6 3 0 6 8 4 5 6 6 11 5 13 10 9 7 8 7 8 10 9 8 6 8 5 7
30 29 26 25 23 21 18 16 14 17 16 16 17 25 24 24 23 24 22 13 9 6 11 9 7 3 1 4 3 7 9 10 11 12 9 13 9 12 13 13 9 6 8 11 10 6 8
32 31 29 26 25 24 22 20 17 15 17 17 15 18 25 26 26 30 22 15 20 5 9 23 11 11 4 2 7 10 12 11 11 11 10 8 15 12 2 6 8 9 12 13 11 4 6
32 31 30 29 27 26 22 22 20 16 19 18 15 13 22 27 29 21 21 22 10 6 1 7 24 12 6 8 7 18 17 8 12 13 18 13 3 7 12 9 11 13 14 12 9 3 14
32 32 30 29 28 26 24 22 20 18 14 19 16 16 18 25 23 19 17 15 8 3 4 11 11 11 14 8 9 12 18 10 7 15 11 12 8 12 13 12 13 13 10 12 10 7 7
33 33 32 31 29 27 25 23 19 17 15 16 20 16 13 27 11 18 15 8 4 0 7 11 12 9 13 22 14 18 19 9 13 11 8 6 12 15 15 12 14 6 5 10 10 9 9
33 35 33 32 30 27 25 23 19 17 15 13 17 20 20 17 5 17 19 16 8 6 13 11 11 15 18 20 14 12 14 9 9 12 10 12 0 10 8 7 15 6 8 6 4 7 10
33 36 35 33 31 28 26 23 22 19 15 14 16 20 19 9 6 22 21 12 6 8 6 11 11 14 18 16 20 16 21 23 17 15 21 16 16 7 9 11 13 14 12 6 8 8 9
33 36 35 33 31 29 26 24 21 18 18 14 17 18 17 8 16 25 16 12 8 16 17 11 16 19 18 18 20 19 20 23 26 17 9 16 12 22 18 18 10 22 19 7 8 11 7
31 34 34 33 31 29 27 24 21 19 19 16 12 11 8 12 21 20 16 11 11 15 23 16 19 16 11 18 11 19 22 24 25 23 14 12 11 7 8 15 17 17 21 17 3 1 4
32 33 33 32 31 29 27 25 23 22 20 18 8 7 14 18 21 18 14 12 12 15 23 22 12 13 16 21 16 21 21 19 21 30 21 7 6 7 17 16 16 13 13 10 11 7 11
31 31 32 31 30 28 27 26 24 22 20 21 7 5 11 19 18 12 14 9 10 21 25 20 15 14 15 17 18 21 19 8 24 24 24 10 8 6 11 15 20 11 15 11 11 12 9
23 27 28 29 29 28 28 26 25 24 22 17 8 9 11 20 18 10 8 11 10 22 20 12 14 13 19 21 19 19 16 12 19 21 26 17 6 9 15 3 13 22 19 21 10 11 14
19 24 27 28 29 29 28 27 26 25 25 12 8 9 6 20 18 8 10 12 17 19 19 17 13 10 15 15 12 16 17 11 17 23 21 18 9 8 5 7 9 17 22 22 21 7 18
20 23 26 28 29 29 29 28 26 26 26 13 8 6 5 8 19 15 11 17 17 24 23 16 13 10 13 13 17 18 13 6 16 21 10 20 9 14 13 6 11 19 21 23 21 16 17
13 25 27 29 30 30 29 28 27 26 26 13 8 5 5 11 12 23 20 19 23 14 14 18 10 19 15 12 18 10 16 8 7 11 14 16 9 17 15 4 6 13 19 22 26 29 21
20 16 28 29 30 31 30 29 28 27 26 14 6 4 4 9 15 26 20 24 20 18 18 21 17 23 24 17 18 19 13 8 10 5 14 12 8 8 14 16 11 13 16 17 26 28 26
22 25 33 31 30 29 29 29 28 28 25 4 6 3 6 10 14 15 22 18 23 23 20 25 29 24 23 25 8 1 7 10 11 14 17 11 10 6 15 9 6 10 28 23 23 26 24
6 22 28 27 29 28 28 28 27 28 27 3 4 5 2 3 14 15 24 18 22 28 18 25 26 22 23 17 15 12 12 6 10 10 11 11 10 3 3 8 11 13 13 22 28 28 25
33 19 22 24 27 27 27 26 25 24 28 5 0 6 4 4 10 17 21 24 20 11 2 14 19 15 16 11 5 4 2 2 3 4 9 12 12 5 5 8 13 15 11 9 14 23 20
27 25 20 19 22 25 26 26 25 23 24 9 6 3 3 2 5 19 23 29 17 17 5 4 1 13 14 4 4 7 7 7 7 7 2 9 9 10 5 8 13 13 9 6 5 15 13
21 24 24 4 24 24 26 25 24 26 26 9 6 10 4 5 2 6 18 19 7 8 5 4 4 5 3 5 4 5 6 5 11 12 8 6 5 13 10 8 8 4 6 10 11 5 2
18 14 19 22 5 24 23 24 25 27 29 18 4 5 7 2 3 7 3 13 11 10 9 6 6 1 1 5 8 6 4 8 7 6 10 13 10 7 8 9 13 10 13 15 2 3 1
20 20 16 16 21 11 22 21 24 26 28 20 4 3 5 4 4 5 9 12 3 11 9 11 3 8 6 4 3 5 5 6 10 8 6 9 11 9 12 7 4 13 5 5 1 4 4
Wind_Direction
275 284 289 274 242 229 239 253 209 202 198 198 197 197 197 195 191 193 189 189 190 195 211 274 317 322 300 247 257 105 349 8 330 309 29 59 320 244 222 172 211 252 243 254 253 265 269
265 265 269 275 265 234 233 238 238 204 199 195 195 194 195 192 190 189 185 182 180 184 195 246 323 310 250 251 89 128 56 128 79 125 81 46 73 27 97 273 283 2 288 278 280 271 259
263 258 256 261 260 256 239 229 235 234 201 196 194 192 191 188 185 183 181 175 173 177 181 197 339 317 251 252 109 151 253 127 85 32 88 75 73 244 176 182 12 304 292 280 251 253 234
251 256 253 248 249 253 252 231 234 235 226 197 192 191 187 187 181 178 172 164 162 167 172 151 300 228 261 163 249 243 192 215 231 236 263 149 356 125 247 132 202 257 256 276 110 213 129
249 246 249 247 240 238 228 236 219 233 244 210 194 190 185 180 176 170 157 151 147 150 131 150 215 241 257 135 218 237 202 208 190 188 188 188 213 227 192 233 234 191 270 242 272 234 277
244 244 242 245 239 229 240 238 229 220 231 236 201 189 184 179 170 157 139 138 125 132 154 172 222 254 217 202 156 143 172 166 150 148 146 184 196 218 218 215 261 285 232 213 260 137 266
239 239 238 239 239 229 227 238 241 220 220 223 227 191 182 178 163 145 134 131 154 191 196 203 189 242 105 129 191 177 153 161 145 165 186 191 210 213 218 224 285 272 256 258 262 268 290
235 233 233 233 234 231 223 222 233 223 215 218 217 209 185 174 161 156 165 186 187 111 192 226 235 245 236 312 174 180 174 173 183 191 159 172 229 231 240 214 221 232 249 256 273 285 234
232 228 228 230 230 230 226 218 218 225 211 210 205 207 197 170 156 167 183 192 161 177 215 175 219 223 190 200 224 182 185 193 204 188 196 217 95 202 197 191 208 227 237 246 259 253 254
230 226 225 225 226 225 226 218 215 216 213 209 200 200 202 169 158 167 188 180 168 222 236 191 192 216 203 182 240 194 198 183 195 213 201 241 182 179 184 207 210 237 228 242 247 251 256
229 225 222 220 221 219 218 219 212 207 209 208 195 191 171 165 141 177 149 126 126 143 215 182 158 129 176 185 132 194 188 192 203 174 185 180 185 201 207 214 197 242 203 212 224 244 279
240 224 219 214 215 214 211 213 204 207 207 203 204 185 170 186 174 161 123 92 54 121 223 173 151 175 167 201 196 141 175 220 234 220 230 256 116 210 210 189 197 144 159 160 212 249 245
230 220 212 209 209 208 206 206 205 198 205 209 205 191 172 173 181 142 130 114 123 212 138 187 172 164 185 180 187 188 184 191 186 193 216 213 210 182 187 163 192 194 183 191 220 209 244
221 206 206 203 203 205 201 202 204 199 201 208 201 187 187 181 155 145 142 138 186 195 188 147 159 163 186 163 202 192 190 198 212 218 201 209 197 206 195 210 190 208 204 214 229 225 241
216 198 198 197 199 199 198 197 198 203 201 191 179 204 190 187 169 151 146 196 189 173 180 160 149 160 184 190 181 186 202 207 202 197 209 199 222 181 200 205 209 199 219 232 297 71 274
203 192 192 191 193 194 195 194 195 200 199 182 204 238 202 168 175 169 174 193 205 200 168 161 159 176 176 186 185 191 185 205 203 206 217 196 181 193 183 208 214 211 191 189 220 227 235
187 185 186 186 188 192 191 190 192 195 199 186 187 213 171 162 175 194 204 172 199 201 174 177 174 175 183 179 201 196 185 168 195 190 198 180 236 136 155 203 194 179 194 216 215 231 239
170 182 183 185 187 189 191 191 190 194 193 183 183 221 194 159 188 195 178 169 196 182 200 195 178 148 182 178 192 193 197 217 189 169 192 193 205 195 205 126 244 209 212 205 207 195 237
186 185 187 187 188 189 191 191 193 193 190 181 193 227 210 175 194 167 145 184 189 173 189 189 192 167 162 168 184 201 199 180 175 175 171 177 201 179 203 198 202 223 219 219 226 252 227
196 196 192 191 190 190 190 191 194 194 196 193 196 190 200 222 202 164 159 175 177 181 186 185 182 171 155 173 205 196 191 153 184 188 171 174 178 204 209 220 174 205 218 218 223 227 232
309 205 199 195 190 191 191 191 194 195 197 187 201 216 239 201 202 191 159 179 169 157 176 180 183 182 173 178 198 197 173 142 190 185 178 186 224 222 237 233 226 211 218 215 218 228 225
300 251 202 196 193 190 191 192 193 195 192 198 148 216 162 282 169 204 169 186 178 172 167 195 196 196 190 196 195 192 164 163 170 189 189 202 202 196 229 227 240 243 239 233 223 235 236
289 206 194 195 193 189 192 194 195 192 184 183 170 172 302 215 193 210 195 183 186 171 185 189 198 190 201 208 202 8 174 174 150 170 189 183 197 188 236 195 218 254 234 230 236 236 240
37 175 165 189 191 189 193 197 197 192 187 122 174 157 345 257 211 196 196 180 191 192 175 195 200 198 203 112 107 83 72 95 161 174 181 180 200 158 229 136 217 241 232 231 236 237 238
30 44 181 187 190 188 191 195 194 189 183 176 198 183 162 261 207 193 198 191 173 173 183 180 185 183 135 126 102 104 58 86 222 196 180 182 177 187 197 201 282 272 216 210 215 247 244
36 31 20 201 199 193 192 194 188 181 174 184 214 178 207 242 224 193 188 191 190 174 163 79 56 154 135 110 129 175 177 156 182 169 357 222 265 211 162 232 229 248 271 169 180 255 249
41 39 14 223 203 197 195 193 186 176 171 190 202 199 59 262 359 279 184 191 133 127 114 127 107 133 17 125 148 172 181 192 167 174 162 172 185 213 203 231 259 227 147 152 208 271 81
42 53 39 36 103 215 193 181 180 176 175 186 130 191 177 286 331 344 5 177 120 171 169 151 114 42 84 164 184 166 179 186 210 207 170 176 170 195 223 233 235 153 162 206 292 98 57
36 40 43 44 43 56 192 181 184 181 176 179 125 131 126 69 322 310 67 30 339 168 123 175 106 148 160 124 223 116 177 171 202 218 198 208 208 200 206 220 63 179 246 180 63 179 117